7 * 24
多渠道服务支持
YAOGAN-43 O1D 是中国高分辨率遥感卫星“遥感四十三号”星座中的一颗光学成像卫星,主要用于国土监测、环境评估和灾害预警等任务。该卫星具备高精度对地观测能力,能够提供清晰的地球表面图像,支持农业、林业、城市规划等多个领域的应用。作为中国航天遥感技术发展的重要组成部分,YAOGAN-43 O1D 提升了国家在空间信息获取与应用方面的能力。
中国
(CN)
| 数据来源 | 国际轨道数据 |
| 星历时间: | 2025-12-15T07:50:56+0800 18小时前 查看轨道信息 |
| 半长轴: | 6863.855km |
| 偏心率: | 0.0003974 |
| 轨道倾角: | 34.992° |
| 近地点辐角 | 301.182° |
| 升交点赤经 | 236.464° |
| 平近点角 | 58.851° |
| 近地点: | 482.992km |
| 远地点: | 488.448km |
| 周期: | 94.322分钟 |
| 每日圈数: | 15.266894 |